Location: D�derode
(51.8092°N, 10.1065°E)
Time: 01:24:01
(UTC+00:00)

Cosmos 1812 - Pass Details

Date: 21 April 2021
Orbit: 516 x 519 km, 82.5° (Epoch: 10 May)

Event Time Altitude Azimuth Distance (km) Brightness Sun altitude
Exits shadow 22:27:19 20° 61° (ENE) 1,258 4.8 -25.1°
Drops below altitude 10° 22:29:11 10° 35° (NE) 1,765 5.9 -25.1°
Sets 22:31:38 0° 21° (NNE) 2,659 7.2 -25.2°
